Flag for Zimbabwe Weather past 2 weeks in Harare, Zimbabwe

Now
68 °F

Broken clouds.


Feels Like: 68 °F
Forecast: 49 / 75 °F
Wind: 6 mph from North

Location: Harare Kutsaga Airport

Current Time: Mar 5, 2015 at 11:05:32 AM

Latest Report: Mar 5, 2015 at 10:00 AM


Visibility: N/A

Pressure: 30.24 "Hg

Humidity: 64%

Dew point: 55 °F

Location of HarareLocation

Historic Weather in Harare — Graph

°F

Harare temperature yesterday

Maximum temperature yesterday: 77 °F (at 3:00 PM)
Minimum temperature yesterday: 55 °F (at 4:00 AM)
Average temperature yesterday: 64 °F

Past Weeks' High & Low Weather Summary

 TemperatureHumidityPressure
High86 °F (Feb 27, 4:00 PM)100% (Feb 19, 1:00 AM)30.30 "Hg (Feb 19, 1:00 AM)
Low52 °F (Mar 5, 5:00 AM)31% (Feb 20, 12:00 PM)29.98 "Hg (Feb 25, 4:00 PM)
Average68 °F78%30.13 "Hg
* Reported Feb 18 10:00 AM — Mar 5 9:00 AM, Harare, Weather by CustomWeather, © 2015

Note: Actual official high and low records may vary slightly from our data, if they occured in-between our weather recording intervals... More about our weather records

Advertising

Harare weather history for previous 24 hours

 ConditionsComfort  
Time TempWeatherWind HumidityBarometerVisibility
9:00 AM
Thu, Mar 5
63 °FBroken clouds.2 mph77%30.24 "HgN/A
8:00 AM61 °FPartly sunny.No wind94%30.21 "HgN/A
7:00 AM55 °FPartly sunny.No wind100%30.21 "HgN/A
6:00 AM54 °FPartly sunny.No wind100%30.18 "HgN/A
5:00 AM52 °FClear.No wind100%30.18 "Hg10 mi
3:00 AM54 °FClear.3 mph100%30.15 "Hg10 mi
2:00 AM54 °FClear.5 mph100%30.15 "Hg10 mi
1:00 AM55 °FClear.6 mph94%30.18 "Hg10 mi
12:00 AM57 °FClear.7 mph88%30.18 "Hg10 mi
11:00 PM
Wed, Mar 4
57 °FClear.5 mph88%30.21 "Hg10 mi
10:00 PM59 °FClear.5 mph82%30.21 "Hg10 mi
9:00 PM61 °FPassing clouds.6 mph77%30.18 "HgN/A
8:00 PM63 °FPassing clouds.6 mph73%30.15 "HgN/A
7:00 PM66 °FPassing clouds.6 mph68%30.15 "HgN/A
6:00 PM72 °FPartly sunny.8 mph57%30.12 "HgN/A
5:00 PM75 °FPassing clouds.5 mph44%30.12 "HgN/A
4:00 PM75 °FPassing clouds.6 mph44%30.12 "HgN/A
3:00 PM77 °FPassing clouds.3 mph44%30.15 "HgN/A
2:00 PM75 °FPassing clouds.6 mph50%30.18 "HgN/A
1:00 PM72 °FPassing clouds.6 mph61%30.21 "HgN/A
12:00 PM68 °FPartly sunny.6 mph64%30.24 "HgN/A
11:00 AM64 °FPartly sunny.8 mph73%30.27 "HgN/A
Weather by CustomWeather, © 2015

See weather overviewHow to use our weather pages